contact:dominique.lefevre@mio.osupytheas.fr, maurice.libes@osupytheas.fr, didier.mallarino@osupytheas.fr
Project:EMSO http://www.emso-fr.org/EMSO-France
Depth: 2436.0 m
Title:EMSO Ligure Ouest : Data MII capteur AQUADOPP
Date,Latitude,Longitude,X_East,Y_North,Z_Up,Amplitude_X,Amplitude_Y,Amplitude_Z,Batterie,SoundSpeed,Heading,Pitch,Roll,Pressure,TIS,Speed,Direction
, degrees North, degrees East, m.s-1, m.s-1,m.s-1, 1, 1, 1, Volt, m.s-1, degree, degree, degree, dbar, degree_C, m.s-1, degree
2023-03-27T00:04:03,42.805,6.029,0.083,0.031,0.048,103.0,106.0,102.0,13.4,1505.2,319.0,-0.7,1.8,2471.354,13.28,0.088,69.5
2023-03-27T00:07:03,42.805,6.029,0.101,0.009,-0.001,102.0,108.0,101.0,13.3,1505.2,326.5,-0.8,1.8,2471.386,13.28,0.101,84.9
2023-03-27T00:10:03,42.805,6.029,0.077,0.002,0.023,104.0,108.0,101.0,13.3,1505.2,337.8,-0.8,1.8,2471.346,13.28,0.077,88.5
2023-03-27T00:13:03,42.805,6.029,0.072,0.021,0.009,102.0,106.0,102.0,13.4,1505.2,327.0,-0.8,1.8,2471.34,13.28,0.074,73.7
2023-03-27T00:16:03,42.805,6.029,0.088,-0.013,0.009,103.0,107.0,102.0,13.3,1505.2,341.2,-0.8,1.8,2471.338,13.28,0.088,98.4
2023-03-27T00:19:03,42.805,6.029,0.063,0.029,0.01,103.0,109.0,101.0,13.4,1505.2,321.4,-0.8,1.8,2471.344,13.28,0.069,65.3
2023-03-27T00:22:03,42.805,6.029,0.076,-0.003,0.008,104.0,107.0,101.0,13.4,1505.2,332.6,-0.8,1.8,2471.363,13.28,0.076,92.3
2023-03-27T00:25:03,42.805,6.029,0.061,0.001,0.017,103.0,106.0,101.0,13.3,1505.2,332.9,-0.8,1.8,2471.31,13.28,0.061,89.1
2023-03-27T00:28:03,42.805,6.029,0.04,0.03,-0.01,104.0,106.0,102.0,13.4,1505.2,324.6,-0.7,1.8,2471.314,13.28,0.05,53.1
2023-03-27T00:31:03,42.805,6.029,0.09,0.023,0.043,102.0,106.0,101.0,13.4,1505.2,319.5,-0.8,1.8,2471.325,13.28,0.092,75.7
2023-03-27T00:34:03,42.805,6.029,0.071,-0.005,-0.008,104.0,108.0,101.0,13.4,1505.2,329.4,-0.8,1.8,2471.321,13.29,0.071,94.0
2023-03-27T00:37:03,42.805,6.029,0.071,-0.004,0.022,103.0,107.0,101.0,13.4,1505.2,338.5,-0.7,1.8,2471.306,13.28,0.071,93.2
2023-03-27T00:40:03,42.805,6.029,0.076,-0.004,0.007,104.0,106.0,101.0,13.4,1505.2,333.4,-0.8,1.9,2471.312,13.28,0.076,93.0
2023-03-27T00:43:03,42.805,6.029,0.096,0.0,0.01,102.0,104.0,102.0,13.3,1505.2,328.0,-0.8,1.8,2471.318,13.28,0.096,90.0
2023-03-27T00:46:03,42.805,6.029,0.09,-0.004,0.034,102.0,108.0,101.0,13.4,1505.2,332.9,-0.8,1.8,2471.338,13.28,0.09,92.5
2023-03-27T00:49:03,42.805,6.029,0.065,0.01,0.007,104.0,108.0,100.0,13.4,1505.2,322.9,-0.8,1.8,2471.326,13.29,0.065,81.3
2023-03-27T00:52:03,42.805,6.029,0.07,0.0,-0.014,104.0,107.0,101.0,13.4,1505.2,320.7,-0.8,1.8,2471.309,13.28,0.069,90.0
2023-03-27T00:55:03,42.805,6.029,0.075,0.015,0.033,103.0,106.0,101.0,13.4,1505.2,325.5,-0.8,1.8,2471.307,13.29,0.076,78.7
2023-03-27T00:58:03,42.805,6.029,0.073,-0.006,0.013,102.0,108.0,100.0,13.4,1505.2,341.5,-0.8,1.8,2471.33,13.29,0.073,94.7
2023-03-27T01:04:03,42.805,6.029,0.061,0.0,0.004,104.0,108.0,103.0,13.4,1505.2,325.0,-0.8,1.8,2471.363,13.28,0.06,90.0
2023-03-27T01:07:03,42.805,6.029,0.073,-0.008,0.024,105.0,110.0,102.0,13.4,1505.2,341.2,-0.8,1.8,2471.315,13.28,0.073,96.3
2023-03-27T01:10:04,42.805,6.029,0.042,0.029,0.02,105.0,107.0,101.0,13.4,1505.2,316.8,-0.7,1.8,2471.36,13.28,0.051,55.4
2023-03-27T01:13:03,42.805,6.029,0.041,0.01,-0.021,104.0,107.0,103.0,13.4,1505.2,326.3,-0.8,1.8,2471.336,13.28,0.042,76.3
2023-03-27T01:16:03,42.805,6.029,0.055,0.014,-0.007,103.0,109.0,102.0,13.4,1505.2,327.9,-0.7,1.8,2471.297,13.28,0.056,75.7
2023-03-27T01:19:03,42.805,6.029,0.079,0.01,0.008,103.0,106.0,103.0,13.3,1505.2,318.6,-0.7,1.8,2471.337,13.28,0.079,82.8
2023-03-27T01:22:03,42.805,6.029,0.086,0.008,-0.006,103.0,106.0,102.0,13.4,1505.2,325.4,-0.8,1.8,2471.306,13.28,0.086,84.7
2023-03-27T01:25:03,42.805,6.029,0.071,0.037,0.003,104.0,107.0,101.0,13.3,1505.2,321.0,-0.7,1.8,2471.287,13.28,0.08,62.5
2023-03-27T01:28:03,42.805,6.029,0.056,-0.018,-0.005,103.0,107.0,102.0,13.3,1505.2,342.5,-0.7,1.8,2471.306,13.28,0.058,107.8
2023-03-27T01:31:03,42.805,6.029,0.094,0.007,0.041,103.0,106.0,101.0,13.4,1505.2,332.9,-0.8,1.8,2471.31,13.28,0.094,85.7
2023-03-27T01:34:03,42.805,6.029,0.077,-0.006,0.004,102.0,106.0,102.0,13.4,1505.2,333.9,-0.7,1.8,2471.332,13.28,0.077,94.5
2023-03-27T01:37:03,42.805,6.029,0.03,0.008,-0.037,103.0,108.0,101.0,13.4,1505.2,316.8,-0.8,1.8,2471.302,13.28,0.031,75.1
2023-03-27T01:40:03,42.805,6.029,0.071,0.016,-0.006,104.0,109.0,101.0,13.3,1505.2,323.1,-0.7,1.8,2471.336,13.28,0.072,77.3
2023-03-27T01:43:03,42.805,6.029,0.069,0.02,0.023,103.0,106.0,102.0,13.4,1505.2,328.3,-0.8,1.8,2471.299,13.28,0.071,73.8
2023-03-27T01:46:03,42.805,6.029,0.065,0.018,0.011,102.0,108.0,102.0,13.4,1505.2,323.7,-0.7,1.8,2471.297,13.28,0.067,74.5
2023-03-27T01:49:03,42.805,6.029,0.043,0.002,-0.001,106.0,108.0,101.0,13.4,1505.2,336.9,-0.8,1.8,2471.29,13.28,0.043,87.3
2023-03-27T01:52:03,42.805,6.029,0.051,0.026,-0.005,104.0,106.0,102.0,13.4,1505.2,332.9,-0.8,1.8,2471.257,13.28,0.057,63.0
2023-03-27T01:55:03,42.805,6.029,0.047,0.017,0.01,103.0,107.0,102.0,13.4,1505.2,322.3,-0.7,1.8,2471.256,13.29,0.049,70.1
2023-03-27T01:58:03,42.805,6.029,0.052,0.012,0.014,103.0,108.0,102.0,13.3,1505.2,330.1,-0.8,1.8,2471.274,13.29,0.053,77.0
2023-03-27T02:04:03,42.805,6.029,0.063,0.005,0.003,102.0,110.0,102.0,13.4,1505.2,329.1,-0.8,1.8,2471.313,13.28,0.063,85.5
2023-03-27T02:07:03,42.805,6.029,0.046,-0.003,-0.009,103.0,109.0,102.0,13.4,1505.2,341.5,-0.8,1.8,2471.309,13.28,0.046,93.7
2023-03-27T02:10:03,42.805,6.029,0.068,0.01,0.013,102.0,110.0,102.0,13.4,1505.2,332.4,-0.8,1.8,2471.345,13.28,0.068,81.6
2023-03-27T02:13:03,42.805,6.029,0.057,-0.018,-0.006,104.0,107.0,102.0,13.4,1505.2,340.2,-0.7,1.8,2471.274,13.28,0.059,107.5
2023-03-27T02:16:03,42.805,6.029,0.065,0.009,-0.027,104.0,106.0,102.0,13.3,1505.2,318.7,-0.7,1.8,2471.287,13.28,0.065,82.1
2023-03-27T02:19:03,42.805,6.029,0.076,0.023,0.028,103.0,109.0,102.0,13.4,1505.2,327.6,-0.8,1.8,2471.302,13.28,0.079,73.2
2023-03-27T02:22:03,42.805,6.029,0.07,0.005,0.012,103.0,108.0,102.0,13.4,1505.2,333.0,-0.8,1.8,2471.285,13.28,0.07,85.9
2023-03-27T02:25:03,42.805,6.029,0.076,-0.001,0.006,104.0,107.0,101.0,13.4,1505.2,323.3,-0.8,1.8,2471.295,13.28,0.076,90.8
2023-03-27T02:28:03,42.805,6.029,0.071,0.004,-0.002,104.0,107.0,101.0,13.3,1505.2,330.5,-0.8,1.8,2471.294,13.28,0.071,86.8
2023-03-27T02:31:03,42.805,6.029,0.071,0.0,-0.006,104.0,109.0,103.0,13.4,1505.2,341.5,-0.8,1.8,2471.275,13.28,0.07,90.0
2023-03-27T02:34:03,42.805,6.029,0.056,0.029,-0.002,103.0,106.0,103.0,13.4,1505.2,319.9,-0.7,1.8,2471.26,13.28,0.063,62.6
2023-03-27T02:37:03,42.805,6.029,0.074,0.039,0.017,102.0,108.0,102.0,13.3,1505.2,321.6,-0.8,1.9,2471.279,13.28,0.083,62.2
2023-03-27T02:40:03,42.805,6.029,0.068,-0.001,0.023,102.0,108.0,101.0,13.3,1505.2,343.4,-0.7,1.8,2471.268,13.28,0.068,90.8
2023-03-27T02:43:03,42.805,6.029,0.059,0.003,0.01,103.0,108.0,101.0,13.4,1505.2,336.6,-0.8,1.8,2471.246,13.28,0.059,87.1
2023-03-27T02:46:03,42.805,6.029,0.084,0.002,0.035,103.0,107.0,101.0,13.4,1505.2,329.1,-0.7,1.8,2471.262,13.28,0.084,88.6
2023-03-27T02:49:03,42.805,6.029,0.099,0.01,0.027,102.0,109.0,102.0,13.4,1505.2,325.4,-0.7,1.8,2471.251,13.29,0.099,84.2
2023-03-27T02:52:03,42.805,6.029,0.058,0.033,0.0,104.0,108.0,102.0,13.4,1505.2,325.7,-0.8,1.8,2471.232,13.29,0.066,60.4
2023-03-27T02:55:03,42.805,6.029,0.071,0.003,0.004,104.0,109.0,101.0,13.4,1505.2,317.2,-0.8,1.8,2471.253,13.29,0.071,87.6
2023-03-27T02:58:03,42.805,6.029,0.069,0.021,0.008,103.0,109.0,101.0,13.4,1505.2,324.3,-0.7,1.8,2471.264,13.28,0.072,73.1
2023-03-27T03:04:03,42.805,6.029,0.053,0.01,-0.017,102.0,108.0,102.0,13.4,1505.2,328.6,-0.7,1.8,2471.291,13.28,0.053,79.3
2023-03-27T03:07:03,42.805,6.029,0.082,0.006,0.013,104.0,109.0,101.0,13.4,1505.2,334.6,-0.8,1.8,2471.286,13.28,0.082,85.8
2023-03-27T03:10:03,42.805,6.029,0.082,-0.011,0.015,103.0,107.0,101.0,13.4,1505.2,334.3,-0.8,1.8,2471.272,13.28,0.082,97.6
2023-03-27T03:13:03,42.805,6.029,0.039,0.008,-0.004,105.0,107.0,102.0,13.4,1505.2,329.2,-0.8,1.8,2471.273,13.28,0.039,78.4
2023-03-27T03:16:03,42.805,6.029,0.063,0.013,-0.01,104.0,106.0,101.0,13.4,1505.2,318.0,-0.7,1.8,2471.298,13.28,0.064,78.3
2023-03-27T03:19:03,42.805,6.029,0.042,0.007,-0.026,103.0,108.0,102.0,13.4,1505.2,327.5,-0.8,1.8,2471.253,13.28,0.042,80.5
2023-03-27T03:22:03,42.805,6.029,0.056,0.015,0.04,103.0,109.0,101.0,13.4,1505.2,330.3,-0.7,1.8,2471.301,13.28,0.057,75.0
2023-03-27T03:25:03,42.805,6.029,0.08,0.019,0.002,104.0,108.0,102.0,13.3,1505.2,325.3,-0.7,1.8,2471.268,13.28,0.082,76.6
2023-03-27T03:28:03,42.805,6.029,0.062,0.011,0.002,101.0,110.0,102.0,13.4,1505.2,325.5,-0.8,1.8,2471.262,13.28,0.062,79.9
2023-03-27T03:31:03,42.805,6.029,0.067,0.004,-0.005,102.0,107.0,102.0,13.4,1505.2,328.4,-0.7,1.8,2471.27,13.28,0.067,86.6
2023-03-27T03:34:03,42.805,6.029,0.062,0.006,0.006,104.0,107.0,101.0,13.4,1505.2,323.6,-0.8,1.8,2471.266,13.28,0.062,84.5
2023-03-27T03:37:03,42.805,6.029,0.025,0.028,-0.009,104.0,107.0,101.0,13.4,1505.2,323.1,-0.8,1.8,2471.209,13.28,0.037,41.8
2023-03-27T03:40:03,42.805,6.029,0.033,0.008,0.002,103.0,108.0,101.0,13.4,1505.2,336.1,-0.8,1.8,2471.255,13.29,0.033,76.4
2023-03-27T03:43:03,42.805,6.029,0.045,0.022,-0.014,103.0,109.0,102.0,13.4,1505.2,326.7,-0.8,1.8,2471.249,13.28,0.05,63.9
2023-03-27T03:46:03,42.805,6.029,0.063,0.029,-0.006,102.0,110.0,101.0,13.4,1505.2,326.5,-0.8,1.8,2471.244,13.28,0.069,65.3
2023-03-27T03:49:03,42.805,6.029,0.056,0.033,-0.005,103.0,109.0,101.0,13.4,1505.2,320.0,-0.7,1.8,2471.269,13.28,0.064,59.5
2023-03-27T03:52:03,42.805,6.029,0.047,0.035,0.018,103.0,109.0,101.0,13.4,1505.2,322.3,-0.7,1.8,2471.235,13.28,0.058,53.3
2023-03-27T03:55:03,42.805,6.029,0.043,0.003,0.011,102.0,107.0,102.0,13.4,1505.2,324.4,-0.8,1.9,2471.231,13.29,0.043,86.0
2023-03-27T03:58:03,42.805,6.029,0.06,0.021,0.012,103.0,109.0,101.0,13.4,1505.2,333.4,-0.7,1.8,2471.209,13.29,0.063,70.7
2023-03-27T04:04:03,42.805,6.029,0.058,0.003,0.006,103.0,107.0,101.0,13.3,1505.2,332.6,-0.8,1.8,2471.309,13.28,0.058,87.0
2023-03-27T04:07:03,42.805,6.029,0.047,0.003,-0.006,102.0,108.0,101.0,13.4,1505.2,335.8,-0.8,1.8,2471.266,13.28,0.047,86.4
2023-03-27T04:10:03,42.805,6.029,0.045,0.006,-0.037,103.0,107.0,102.0,13.3,1505.2,329.3,-0.8,1.8,2471.291,13.28,0.045,82.4
2023-03-27T04:13:03,42.805,6.029,0.062,0.014,0.007,103.0,109.0,102.0,13.3,1505.2,340.2,-0.8,1.8,2471.28,13.28,0.063,77.3
2023-03-27T04:16:03,42.805,6.029,0.043,0.036,0.041,103.0,109.0,101.0,13.4,1505.2,316.1,-0.8,1.8,2471.254,13.28,0.056,50.1
2023-03-27T04:19:03,42.805,6.029,0.088,0.014,0.033,102.0,109.0,102.0,13.4,1505.2,333.8,-0.8,1.8,2471.243,13.28,0.089,81.0
2023-03-27T04:22:03,42.805,6.029,0.07,0.029,0.04,103.0,107.0,103.0,13.4,1505.2,321.8,-0.7,1.8,2471.258,13.28,0.075,67.5
2023-03-27T04:25:03,42.805,6.029,0.075,0.019,0.009,104.0,108.0,101.0,13.4,1505.2,325.0,-0.8,1.8,2471.245,13.28,0.077,75.8
2023-03-27T04:28:03,42.805,6.029,0.055,0.017,0.028,103.0,109.0,101.0,13.4,1505.2,335.4,-0.8,1.9,2471.256,13.28,0.057,72.8
2023-03-27T04:31:03,42.805,6.029,0.07,0.021,0.0,104.0,108.0,101.0,13.3,1505.2,326.5,-0.8,1.8,2471.229,13.28,0.073,73.3
2023-03-27T04:34:03,42.805,6.029,0.048,0.028,0.021,103.0,109.0,101.0,13.3,1505.2,317.9,-0.8,1.8,2471.235,13.28,0.055,59.7
2023-03-27T04:37:03,42.805,6.029,0.065,0.026,0.013,104.0,108.0,102.0,13.4,1505.2,331.0,-0.8,1.8,2471.243,13.28,0.07,68.2
2023-03-27T04:40:03,42.805,6.029,0.07,0.015,-0.009,104.0,108.0,102.0,13.4,1505.2,324.6,-0.8,1.8,2471.231,13.28,0.071,77.9
2023-03-27T04:43:02,42.805,6.029,0.064,0.028,0.013,104.0,107.0,102.0,13.4,1505.2,324.0,-0.7,1.8,2471.217,13.28,0.069,66.4
2023-03-27T04:46:02,42.805,6.029,0.052,0.026,0.0,104.0,109.0,101.0,13.4,1505.2,330.5,-0.8,1.8,2471.22,13.29,0.058,63.4
2023-03-27T04:49:02,42.805,6.029,0.061,-0.007,0.012,103.0,109.0,101.0,13.4,1505.2,339.1,-0.8,1.8,2471.234,13.28,0.061,96.5
2023-03-27T04:52:02,42.805,6.029,0.084,-0.006,0.022,103.0,106.0,101.0,13.4,1505.2,334.4,-0.8,1.8,2471.224,13.28,0.084,94.1
2023-03-27T04:55:02,42.805,6.029,0.042,0.026,-0.015,104.0,108.0,102.0,13.4,1505.2,327.4,-0.8,1.8,2471.222,13.28,0.049,58.2
2023-03-27T04:58:02,42.805,6.029,0.048,0.024,0.011,103.0,109.0,102.0,13.4,1505.2,325.5,-0.7,1.8,2471.221,13.28,0.053,63.4
2023-03-27T05:04:02,42.805,6.029,0.068,0.02,0.024,104.0,109.0,102.0,13.4,1505.2,331.5,-0.8,1.8,2471.251,13.28,0.07,73.6
2023-03-27T05:07:02,42.805,6.029,0.033,0.014,-0.054,104.0,109.0,101.0,13.4,1505.2,329.1,-0.7,1.8,2471.25,13.28,0.035,67.0
2023-03-27T05:10:03,42.805,6.029,0.037,0.037,-0.018,101.0,108.0,102.0,13.4,1505.2,316.7,-0.8,1.9,2471.287,13.28,0.052,45.0
2023-03-27T05:13:03,42.805,6.029,0.08,0.025,0.023,101.0,109.0,101.0,13.4,1505.2,330.8,-0.8,1.8,2471.272,13.28,0.083,72.6
2023-03-27T05:16:03,42.805,6.029,0.065,0.01,-0.017,104.0,109.0,102.0,13.3,1505.2,332.6,-0.8,1.8,2471.25,13.28,0.065,81.3
2023-03-27T05:19:03,42.805,6.029,0.072,0.019,0.024,102.0,109.0,103.0,13.4,1505.2,338.8,-0.8,1.8,2471.215,13.28,0.074,75.2
2023-03-27T05:22:02,42.805,6.029,0.066,0.007,0.027,103.0,106.0,102.0,13.4,1505.2,326.7,-0.8,1.8,2471.226,13.28,0.066,83.9
2023-03-27T05:25:03,42.805,6.029,0.069,0.019,0.029,104.0,107.0,101.0,13.3,1505.2,334.8,-0.8,1.8,2471.26,13.28,0.071,74.6
2023-03-27T05:28:03,42.805,6.029,0.073,0.022,-0.003,103.0,108.0,103.0,13.4,1505.2,333.8,-0.8,1.8,2471.192,13.28,0.076,73.2
2023-03-27T05:31:03,42.805,6.029,0.087,0.0,0.01,103.0,109.0,102.0,13.4,1505.2,340.2,-0.7,1.8,2471.229,13.28,0.086,90.0
2023-03-27T05:34:03,42.805,6.029,0.07,-0.001,0.007,104.0,108.0,102.0,13.3,1505.2,327.9,-0.8,1.8,2471.246,13.29,0.07,90.8
2023-03-27T05:37:02,42.805,6.029,0.059,0.005,0.015,104.0,109.0,101.0,13.3,1505.2,342.2,-0.8,1.8,2471.237,13.28,0.059,85.2
2023-03-27T05:40:03,42.805,6.029,0.081,0.006,0.027,103.0,108.0,101.0,13.4,1505.2,333.9,-0.8,1.8,2471.205,13.29,0.081,85.8
2023-03-27T05:43:03,42.805,6.029,0.07,-0.007,0.009,103.0,109.0,102.0,13.3,1505.2,330.2,-0.8,1.8,2471.228,13.28,0.07,95.7
2023-03-27T05:46:03,42.805,6.029,0.046,0.012,-0.018,104.0,107.0,102.0,13.4,1505.2,319.8,-0.8,1.8,2471.241,13.28,0.047,75.4
2023-03-27T05:49:03,42.805,6.029,0.074,0.017,0.008,104.0,110.0,102.0,13.4,1505.2,334.4,-0.8,1.9,2471.246,13.28,0.075,77.1
2023-03-27T05:52:02,42.805,6.029,0.044,0.024,0.02,104.0,110.0,102.0,13.3,1505.2,319.9,-0.8,1.8,2471.211,13.29,0.05,61.4
2023-03-27T05:55:03,42.805,6.029,0.083,0.01,0.019,104.0,108.0,101.0,13.4,1505.2,339.1,-0.8,1.8,2471.2,13.29,0.083,83.1
2023-03-27T05:58:03,42.805,6.029,0.063,0.0,0.012,103.0,108.0,102.0,13.3,1505.2,343.7,-0.8,1.8,2471.241,13.28,0.062,90.0
2023-03-27T06:04:02,42.805,6.029,0.04,0.014,0.003,104.0,108.0,101.0,13.4,1505.2,328.8,-0.8,1.9,2471.253,13.28,0.042,70.7
2023-03-27T06:07:03,42.805,6.029,0.1,0.027,0.05,103.0,107.0,101.0,13.4,1505.2,328.8,-0.8,1.8,2471.246,13.28,0.103,74.9
2023-03-27T06:10:03,42.805,6.029,0.063,0.015,0.029,103.0,108.0,102.0,13.4,1505.2,333.4,-0.8,1.8,2471.278,13.28,0.064,76.6
2023-03-27T06:13:03,42.805,6.029,0.049,-0.02,-0.02,103.0,106.0,102.0,13.4,1505.2,343.2,-0.8,1.8,2471.254,13.28,0.052,112.2
2023-03-27T06:16:03,42.805,6.029,0.06,-0.01,0.0,104.0,107.0,103.0,13.3,1505.2,341.8,-0.8,1.8,2471.258,13.28,0.06,99.5
2023-03-27T06:19:03,42.805,6.029,0.058,0.005,0.005,103.0,107.0,102.0,13.4,1505.2,333.8,-0.8,1.8,2471.257,13.28,0.058,85.1
2023-03-27T06:22:03,42.805,6.029,0.064,0.016,0.027,103.0,108.0,102.0,13.3,1505.2,320.7,-0.8,1.8,2471.235,13.28,0.065,76.0
2023-03-27T06:25:03,42.805,6.029,0.066,0.002,0.039,102.0,107.0,102.0,13.4,1505.2,325.7,-0.7,1.8,2471.225,13.28,0.066,88.3
2023-03-27T06:28:03,42.805,6.029,0.076,0.01,0.011,105.0,107.0,102.0,13.3,1505.2,340.0,-0.8,1.8,2471.205,13.28,0.076,82.5
2023-03-27T06:31:03,42.805,6.029,0.07,0.039,0.013,103.0,108.0,102.0,13.4,1505.2,323.6,-0.8,1.8,2471.217,13.28,0.08,60.9
2023-03-27T06:34:03,42.805,6.029,0.088,-0.002,0.021,104.0,108.0,102.0,13.3,1505.2,336.1,-0.7,1.8,2471.242,13.28,0.088,91.3
2023-03-27T06:37:03,42.805,6.029,0.062,0.006,0.0,103.0,108.0,102.0,13.4,1505.2,327.9,-0.7,1.8,2471.238,13.28,0.062,84.5
2023-03-27T06:40:03,42.805,6.029,0.072,-0.016,0.0,103.0,108.0,102.0,13.3,1505.2,341.5,-0.8,1.8,2471.248,13.28,0.073,102.5
2023-03-27T06:43:03,42.805,6.029,0.044,0.017,-0.042,102.0,109.0,101.0,13.4,1505.2,316.1,-0.8,1.8,2471.214,13.28,0.047,68.9
2023-03-27T06:46:03,42.805,6.029,0.077,-0.005,0.015,102.0,108.0,102.0,13.4,1505.2,332.5,-0.7,1.8,2471.225,13.28,0.077,93.7
2023-03-27T06:49:03,42.805,6.029,0.061,-0.014,0.0,103.0,111.0,102.0,13.4,1505.2,343.9,-0.8,1.8,2471.258,13.28,0.062,102.9
2023-03-27T06:52:03,42.805,6.029,0.088,0.036,0.01,103.0,109.0,102.0,13.4,1505.2,324.0,-0.8,1.8,2471.227,13.28,0.095,67.8
2023-03-27T06:55:02,42.805,6.029,0.094,-0.007,0.006,104.0,110.0,102.0,13.4,1505.2,336.0,-0.8,1.8,2471.241,13.28,0.094,94.3
2023-03-27T06:58:03,42.805,6.029,0.082,-0.01,-0.002,103.0,109.0,103.0,13.4,1505.2,338.5,-0.8,1.8,2471.221,13.28,0.082,97.0
2023-03-27T07:04:02,42.805,6.029,0.095,0.002,0.042,103.0,106.0,102.0,13.3,1505.2,334.9,-0.8,1.8,2471.277,13.28,0.095,88.8
2023-03-27T07:07:03,42.805,6.029,0.052,0.001,0.013,103.0,105.0,102.0,13.4,1505.2,329.5,-0.7,1.8,2471.27,13.28,0.052,88.9
2023-03-27T07:10:03,42.805,6.029,0.085,-0.021,0.026,103.0,108.0,101.0,13.4,1505.2,342.8,-0.8,1.8,2471.302,13.28,0.087,103.9
2023-03-27T07:13:03,42.805,6.029,0.088,0.0,0.027,104.0,107.0,102.0,13.4,1505.2,328.8,-0.8,1.8,2471.258,13.28,0.087,90.0
2023-03-27T07:16:03,42.805,6.029,0.062,-0.014,0.029,103.0,108.0,102.0,13.4,1505.2,343.3,-0.8,1.8,2471.268,13.28,0.063,102.7
2023-03-27T07:19:03,42.805,6.029,0.058,0.018,0.022,103.0,108.0,103.0,13.4,1505.2,326.0,-0.8,1.8,2471.252,13.28,0.06,72.8
2023-03-27T07:22:03,42.805,6.029,0.083,0.015,0.005,104.0,107.0,103.0,13.3,1505.2,322.5,-0.8,1.8,2471.242,13.28,0.084,79.8
2023-03-27T07:25:03,42.805,6.029,0.076,0.004,0.006,104.0,107.0,102.0,13.3,1505.2,330.1,-0.7,1.8,2471.269,13.28,0.076,87.0
2023-03-27T07:28:03,42.805,6.029,0.061,0.018,0.014,104.0,107.0,102.0,13.3,1505.2,323.5,-0.8,1.8,2471.25,13.28,0.063,73.6
2023-03-27T07:31:03,42.805,6.029,0.065,0.0,0.024,104.0,109.0,103.0,13.4,1505.2,341.5,-0.8,1.8,2471.235,13.29,0.064,90.0
2023-03-27T07:34:03,42.805,6.029,0.059,0.0,-0.004,104.0,109.0,102.0,13.4,1505.2,324.6,-0.7,1.8,2471.304,13.29,0.058,90.0
2023-03-27T07:37:03,42.805,6.029,0.072,0.007,0.0,103.0,106.0,101.0,13.3,1505.2,323.8,-0.7,1.8,2471.245,13.29,0.072,84.5
2023-03-27T07:40:03,42.805,6.029,0.126,0.0,-0.003,103.0,107.0,102.0,13.4,1505.2,321.8,-0.8,1.8,2471.244,13.28,0.125,90.0
2023-03-27T07:43:03,42.805,6.029,0.11,-0.024,0.02,103.0,107.0,102.0,13.4,1505.2,340.5,-0.8,1.8,2471.236,13.29,0.112,102.3
2023-03-27T07:46:03,42.805,6.029,0.068,0.007,-0.005,105.0,107.0,102.0,13.4,1505.2,333.4,-0.8,1.8,2471.269,13.28,0.068,84.1
2023-03-27T07:49:03,42.805,6.029,0.048,0.0,0.047,103.0,107.0,102.0,13.4,1505.2,331.6,-0.8,1.8,2471.26,13.28,0.048,90.0
2023-03-27T07:52:03,42.805,6.029,0.036,0.023,0.029,105.0,108.0,101.0,13.4,1505.2,322.3,-0.8,1.8,2471.275,13.28,0.042,57.4
2023-03-27T07:55:03,42.805,6.029,0.088,0.017,0.008,103.0,107.0,102.0,13.3,1505.2,323.1,-0.8,1.8,2471.222,13.28,0.089,79.1
2023-03-27T07:58:03,42.805,6.029,0.047,0.007,0.0,104.0,107.0,102.0,13.4,1505.2,317.4,-0.8,1.8,2471.234,13.29,0.047,81.5
2023-03-27T08:04:03,42.805,6.029,0.094,0.005,0.012,104.0,106.0,102.0,13.4,1505.2,318.4,-0.8,1.8,2471.314,13.28,0.094,87.0
2023-03-27T08:07:03,42.805,6.029,0.104,0.013,0.033,103.0,105.0,101.0,13.4,1505.2,332.0,-0.8,1.8,2471.29,13.28,0.104,82.9
2023-03-27T08:10:03,42.805,6.029,0.069,0.023,0.008,103.0,109.0,102.0,13.4,1505.2,333.9,-0.8,1.8,2471.315,13.28,0.072,71.6
2023-03-27T08:13:03,42.805,6.029,0.064,-0.01,0.017,102.0,108.0,102.0,13.4,1505.2,340.5,-0.8,1.8,2471.334,13.28,0.064,98.9
2023-03-27T08:16:03,42.805,6.029,0.056,-0.015,-0.062,103.0,107.0,102.0,13.3,1505.2,324.3,-0.8,1.8,2471.299,13.28,0.057,105.0
2023-03-27T08:19:03,42.805,6.029,0.077,-0.007,-0.004,103.0,107.0,102.0,13.4,1505.2,341.2,-0.8,1.8,2471.247,13.28,0.077,95.2
2023-03-27T08:22:03,42.805,6.029,0.069,0.023,0.013,103.0,109.0,102.0,13.4,1505.2,321.3,-0.8,1.8,2471.29,13.28,0.072,71.6
2023-03-27T08:25:03,42.805,6.029,0.067,0.016,-0.002,104.0,107.0,102.0,13.4,1505.2,323.9,-0.7,1.8,2471.318,13.28,0.068,76.6
2023-03-27T08:28:03,42.805,6.029,0.087,0.032,0.021,103.0,108.0,103.0,13.4,1505.2,326.7,-0.8,1.8,2471.23,13.28,0.092,69.8
2023-03-27T08:31:03,42.805,6.029,0.071,0.018,0.02,103.0,107.0,102.0,13.3,1505.2,331.0,-0.8,1.8,2471.251,13.28,0.073,75.8
2023-03-27T08:34:03,42.805,6.029,0.095,0.045,0.059,103.0,108.0,101.0,13.4,1505.2,324.8,-0.8,1.8,2471.258,13.28,0.105,64.7
2023-03-27T08:37:03,42.805,6.029,0.063,0.009,-0.018,105.0,108.0,102.0,13.4,1505.2,320.1,-0.8,1.8,2471.285,13.28,0.063,81.9
2023-03-27T08:40:03,42.805,6.029,0.106,0.009,0.024,103.0,108.0,102.0,13.4,1505.2,324.8,-0.7,1.8,2471.27,13.28,0.106,85.1
2023-03-27T08:43:03,42.805,6.029,0.08,0.0,0.004,103.0,108.0,102.0,13.3,1505.2,321.8,-0.8,1.8,2471.271,13.28,0.079,90.0
2023-03-27T08:46:03,42.805,6.029,0.054,0.006,-0.011,103.0,108.0,102.0,13.4,1505.2,330.2,-0.8,1.8,2471.268,13.29,0.054,83.7
2023-03-27T08:49:03,42.805,6.029,0.082,0.01,0.012,103.0,108.0,102.0,13.4,1505.2,326.5,-0.8,1.8,2471.249,13.29,0.082,83.0
2023-03-27T08:52:03,42.805,6.029,0.104,0.003,0.04,103.0,106.0,101.0,13.4,1505.2,329.3,-0.8,1.8,2471.286,13.28,0.104,88.4
2023-03-27T08:55:03,42.805,6.029,0.079,-0.004,0.002,104.0,108.0,102.0,13.4,1505.2,335.5,-0.7,1.8,2471.27,13.29,0.079,92.9
2023-03-27T08:58:03,42.805,6.029,0.058,0.011,-0.011,103.0,108.0,101.0,13.4,1505.2,324.7,-0.8,1.8,2471.239,13.28,0.059,79.3
2023-03-27T09:04:03,42.805,6.029,0.088,0.021,0.044,104.0,109.0,101.0,13.3,1505.2,327.2,-0.7,1.9,2471.358,13.28,0.09,76.6
2023-03-27T09:07:03,42.805,6.029,0.084,0.024,0.013,104.0,108.0,102.0,13.4,1505.2,322.9,-0.8,1.8,2471.291,13.28,0.087,74.1
2023-03-27T09:10:03,42.805,6.029,0.074,0.006,0.016,103.0,107.0,102.0,13.4,1505.2,322.9,-0.8,1.8,2471.347,13.28,0.074,85.4
2023-03-27T09:13:03,42.805,6.029,0.052,0.014,0.023,104.0,105.0,102.0,13.4,1505.2,319.2,-0.7,1.8,2471.314,13.28,0.053,74.9
2023-03-27T09:16:03,42.805,6.029,0.059,-0.006,-0.009,103.0,108.0,102.0,13.4,1505.2,322.6,-0.7,1.8,2471.324,13.28,0.059,95.8
2023-03-27T09:19:03,42.805,6.029,0.093,-0.007,0.04,103.0,106.0,102.0,13.4,1505.2,332.4,-0.8,1.8,2471.3,13.28,0.093,94.3
2023-03-27T09:22:03,42.805,6.029,0.055,0.01,0.0,102.0,108.0,102.0,13.3,1505.2,336.2,-0.8,1.8,2471.327,13.28,0.055,79.7
2023-03-27T09:25:03,42.805,6.029,0.062,0.016,-0.005,103.0,107.0,101.0,13.3,1505.2,323.1,-0.7,1.8,2471.307,13.28,0.064,75.5
2023-03-27T09:28:03,42.805,6.029,0.072,0.031,0.018,104.0,108.0,102.0,13.4,1505.2,322.0,-0.7,1.8,2471.302,13.28,0.078,66.7
2023-03-27T09:31:03,42.805,6.029,0.066,0.039,0.002,104.0,109.0,102.0,13.4,1505.2,321.3,-0.7,1.8,2471.305,13.28,0.076,59.4
2023-03-27T09:34:03,42.805,6.029,0.078,-0.014,0.006,103.0,106.0,101.0,13.4,1505.2,332.5,-0.7,1.8,2471.301,13.28,0.079,100.2
2023-03-27T09:37:03,42.805,6.029,0.075,0.002,0.018,104.0,106.0,102.0,13.3,1505.2,322.9,-0.8,1.8,2471.324,13.28,0.075,88.5
2023-03-27T09:40:03,42.805,6.029,0.047,0.0,-0.025,104.0,106.0,103.0,13.4,1505.2,335.0,-0.8,1.8,2471.32,13.28,0.047,90.0
2023-03-27T09:43:03,42.805,6.029,0.058,0.018,0.004,104.0,105.0,101.0,13.4,1505.2,330.9,-0.8,1.8,2471.322,13.28,0.06,72.8
2023-03-27T09:46:03,42.805,6.029,0.063,-0.016,0.031,103.0,107.0,103.0,13.3,1505.2,345.4,-0.8,1.8,2471.303,13.28,0.064,104.2
2023-03-27T09:49:03,42.805,6.029,0.074,0.009,-0.006,102.0,106.0,102.0,13.4,1505.2,325.7,-0.8,1.8,2471.247,13.28,0.074,83.1
2023-03-27T09:52:03,42.805,6.029,0.092,0.007,0.016,103.0,107.0,102.0,13.4,1505.2,336.5,-0.8,1.9,2471.299,13.28,0.092,85.6
2023-03-27T09:55:03,42.805,6.029,0.11,-0.001,0.024,102.0,106.0,101.0,13.4,1505.2,333.4,-0.8,1.8,2471.357,13.28,0.11,90.5
2023-03-27T09:58:03,42.805,6.029,0.094,-0.003,0.021,103.0,106.0,101.0,13.4,1505.2,340.9,-0.8,1.8,2471.339,13.28,0.094,91.8
2023-03-27T10:04:03,42.805,6.029,0.073,0.023,0.048,102.0,107.0,102.0,13.4,1505.2,334.8,-0.7,1.8,2471.34,13.28,0.076,72.5
2023-03-27T10:07:03,42.805,6.029,0.061,0.029,0.001,103.0,107.0,102.0,13.4,1505.2,323.5,-0.8,1.8,2471.343,13.28,0.067,64.6
2023-03-27T10:10:03,42.805,6.029,0.087,0.0,0.01,103.0,106.0,102.0,13.4,1505.2,337.6,-0.8,1.8,2471.322,13.28,0.086,90.0